Location: Douglas (historical)
(40.9162°N, 81.8718°W)
Time: 14:44:15
(UTC+00:00)

Daily predictions for brighter satellites

Satellite Brightness Start Highest point End
(mag) Time Altitude Azimuth Time Altitude Azimuth Time Altitude Azimuth
Radarsat Rocket 4.1 22:20:05 10° SSE 22:25:56 64° ENE 22:32:23 10° N
USA 281 4.4 22:28:26 10° E 22:32:57 20° NE 22:37:29 10° N
MOS 1-B 4.4 22:27:42 10° SSE 22:33:30 88° ENE 22:39:21 10° NNW
CZ-4B R/B 3.2 22:29:32 10° SSE 22:34:45 56° ENE 22:39:56 10° N
H-2A R/B 3.5 22:32:02 10° S 22:35:47 58° W 22:39:36 10° NNW
ISS -2.7 22:33:03 10° W 22:36:13 37° NNW 22:39:23 10° NE
Cosmos 1939 Rocket 4.3 22:34:00 10° ESE 22:36:26 16° ENE 22:38:52 10° NNE
Landsat 5 3.8 22:32:15 10° N 22:36:40 80° WNW 22:41:09 10° SSW
Cosmos 2237 Rocket 2.2 22:31:47 10° SSW 22:37:23 83° ESE 22:43:03 10° NNE
OE (NEXTSAT) 4.4 22:34:48 10° WSW 22:38:14 71° SSE 22:41:40 10° ENE
CORIOLIS 4.2 22:40:50 10° SSE 22:46:07 59° ENE 22:51:27 10° N
Nadezhda 1 Rocket 4.2 22:42:10 10° S 22:48:29 84° W 22:54:55 10° N
FengYun 1-2 T 4.4 22:44:56 10° SE 22:50:17 51° ENE 22:55:37 10° N
Cosmos 405 Rocket 3.3 22:46:42 10° NNW 22:50:35 64° W 22:54:31 10° S
H-2A R/B 2.3 22:46:32 10° N 22:50:41 73° WNW 22:54:56 10° SSW
CZ-4B R/B 1.9 22:47:56 10° NNE 22:50:47 34° E 22:53:38 10° SSE
Cosmos 2369 Rocket 3.9 22:49:54 10° NNE 22:52:07 12° NE 22:53:22 11° ENE
Cosmos 1356 4.0 22:49:32 10° N 22:52:44 35° ENE 22:55:53 10° SE
Abrixas rocket 2.2 22:52:05 10° WNW 22:54:49 60° SSW 22:57:32 10° SE
Cosmos 1980 4.1 22:50:16 10° SSW 22:55:55 66° WNW 23:01:35 10° NNE
SKYMED 2 4.5 22:52:10 10° NE 22:55:56 28° E 22:59:41 10° SSE
Cosmos 1633 Rocket 3.7 22:57:10 10° NNE 23:01:05 31° ENE 23:04:57 10° SE
ADEOS Rocket 4.4 22:55:58 10° N 23:03:21 52° WNW 23:10:46 10° SW
X-37B 3.0 23:02:35 10° SSE 23:03:30 11° SE 23:04:25 10° ESE
Cosmos 1867 3.5 22:58:53 10° SSW 23:04:17 74° ESE 23:09:40 10° NE
Cosmos 1606 2.7 23:03:51 10° S 23:07:44 89° ESE 23:11:39 10° N
Cosmos 2154 Rocket 4.5 23:01:36 10° NNW 23:07:53 68° W 23:14:11 10° S
Cosmos 962 Rocket 4.4 23:02:01 10° N 23:08:20 74° E 23:14:31 10° SSE
Cosmos 1933 3.5 23:06:32 10° S 23:10:25 50° E 23:14:22 10° NNE
SAR-Lupe-4 4.2 23:08:16 15° NE 23:10:51 34° E 23:14:08 10° SSE
SMAP 3.6 23:08:34 10° S 23:13:09 63° WSW 23:17:48 10° NNW
CZ-2C R/B 3.9 23:08:57 10° ESE 23:13:10 26° ENE 23:17:13 10° NNE
Cosmos 1818 4.0 23:08:08 10° NW 23:13:35 66° WSW 23:18:57 10° SSE
Cosmos 1943 Rocket 3.1 23:12:00 10° N 23:16:38 26° NE 23:19:12 19° E
USA 215 3.3 23:12:52 13° NE 23:18:48 89° NW 23:25:21 10° SW
Cosmos 2341 Rocket 4.0 23:12:30 10° N 23:18:49 79° E 23:25:09 10° S
Cosmos 1125 Rocket 4.0 23:15:04 10° NNW 23:20:12 62° WSW 23:25:19 10° S
Cosmos 2297 3.9 23:15:25 10° NNW 23:20:54 47° ENE 23:26:23 10° SE
Cosmos 1782 3.4 23:20:54 10° SSE 23:24:26 32° E 23:25:18 29° ENE
SL-16 R/B 2.1 23:20:33 10° SSW 23:26:11 74° ESE 23:31:22 12° NNE
Meteor 1-4 Rocket 3.2 23:23:01 10° SSE 23:26:18 32° E 23:26:26 32° E
SAR-Lupe-1 4.1 23:25:48 21° NNE 23:27:59 55° E 23:31:31 10° S
BREEZE-M DEB (TANK) 4.2 23:17:53 10° SW 23:29:22 48° SSE 23:31:29 27° E
YAOGAN 1 3.6 23:30:24 26° NE 23:30:24 26° NE 23:33:09 10° N
ERS-2 2.4 23:27:37 10° N 23:31:17 70° WNW 23:34:55 10° SSW
Cosmos 1689 Rocket 2.4 23:32:45 45° ESE 23:32:45 45° ESE 23:35:16 10° S
Cosmos 2285 Rocket 4.0 23:26:40 10° NNW 23:32:58 56° ENE 23:39:11 10° SE
PSLV R/B 4.0 23:32:06 25° NE 23:34:12 50° E 23:38:07 10° S
SL-24 R/B 3.7 23:32:18 17° NNE 23:35:14 62° E 23:38:54 10° S
Helios 1A Rocket 3.4 23:36:27 36° ENE 23:36:27 36° ENE 23:39:50 10° N
BREEZE-M DEB (TANK) 3.1 23:34:04 10° W 23:36:10 26° NNW 23:36:12 26° NNW
Cosmos 1470 Rocket 3.8 23:33:39 10° N 23:37:47 43° ENE 23:41:53 10° SSE
Cosmos 864 Rocket 4.4 23:31:35 10° N 23:37:53 66° E 23:44:05 10° SSE
YAOGAN 3 4.5 23:33:56 10° SSE 23:38:17 88° ENE 23:42:40 10° NNW
SL-8 Rocket 3.9 23:32:10 10° N 23:38:25 85° E 23:44:42 10° S
Meteor 1-26 Rocket 4.3 23:34:26 10° S 23:40:23 70° E 23:46:24 10° NNE
IRS-1C Rocket 4.0 23:36:28 10° SSE 23:41:43 76° ENE 23:47:00 10° N
Cosmos 1515 Rocket 3.7 23:38:53 10° SSE 23:43:02 46° E 23:43:50 41° ENE
BREEZE-M DEB (TANK) 4.2 23:42:00 10° NW 23:42:50 14° NNW 23:42:50 14° NNW
COSMO-SKYMED 1 2.6 23:39:43 10° N 23:44:05 83° WNW 23:48:25 10° SSW
CZ-2D R/B 3.1 23:40:21 10° SSE 23:44:07 70° ENE 23:47:56 10° N
Lacrosse 5 rocket 1.0 23:41:03 10° SW 23:44:42 74° NW 23:45:31 50° NNE
Cosmos 2181 Rocket 4.1 23:38:51 10° S 23:45:17 81° W 23:51:43 10° N
Cosmos 1959 Rocket 4.4 23:40:31 10° N 23:46:54 81° E 23:53:15 10° S
Cosmos 1602 4.3 23:43:23 10° N 23:49:55 18° SSE 23:51:03 10° SSE
Okean-O 2.6 23:44:25 10° SSE 23:48:44 55° ENE 23:53:04 10° N
USA 267 3.4 23:47:07 31° E 23:50:02 51° NNE 23:56:19 10° NW
Cosmos 1821 Rocket 4.4 23:46:42 10° N 23:52:26 37° ENE 23:53:05 36° E
